Year,Month,Day,Hour,Minute,Value (Times are PST for barometer in hPa)
2015,02,07,00,00,992.38
2015,02,07,00,01,992.38
2015,02,07,00,02,992.42
2015,02,07,00,03,992.38
2015,02,07,00,04,992.35
2015,02,07,00,05,992.35
2015,02,07,00,06,992.35
2015,02,07,00,07,992.31
2015,02,07,00,08,992.35
2015,02,07,00,09,992.31
2015,02,07,00,10,992.38
2015,02,07,00,11,992.45
2015,02,07,00,12,992.45
2015,02,07,00,13,992.48
2015,02,07,00,14,992.48
2015,02,07,00,15,992.42
2015,02,07,00,16,992.31
2015,02,07,00,17,992.28
2015,02,07,00,18,992.22
2015,02,07,00,19,992.38
2015,02,07,00,20,992.42
2015,02,07,00,21,992.45
2015,02,07,00,22,992.45
2015,02,07,00,23,992.38
2015,02,07,00,24,992.45
2015,02,07,00,25,992.48
2015,02,07,00,26,992.55
2015,02,07,00,27,992.55
2015,02,07,00,28,992.58
2015,02,07,00,29,992.55
2015,02,07,00,30,992.58
2015,02,07,00,31,992.55
2015,02,07,00,32,992.58
2015,02,07,00,33,992.58
2015,02,07,00,34,992.72
2015,02,07,00,35,992.75
2015,02,07,00,36,992.75
2015,02,07,00,37,992.69
2015,02,07,00,38,992.65
2015,02,07,00,39,992.62
2015,02,07,00,40,992.65
2015,02,07,00,41,992.65
2015,02,07,00,42,992.69
2015,02,07,00,43,992.69
2015,02,07,00,44,992.72
2015,02,07,00,45,992.69
2015,02,07,00,46,992.65
2015,02,07,00,47,992.48
2015,02,07,00,48,992.48
2015,02,07,00,49,992.48
2015,02,07,00,50,992.65
2015,02,07,00,51,992.72
2015,02,07,00,52,992.75
2015,02,07,00,53,992.68
2015,02,07,00,54,992.55
2015,02,07,00,55,992.58
2015,02,07,00,56,992.52
2015,02,07,00,57,992.55
2015,02,07,00,58,992.55
2015,02,07,00,59,992.52
2015,02,07,01,00,992.52
2015,02,07,01,01,992.42
2015,02,07,01,02,992.38
2015,02,07,01,03,992.42
2015,02,07,01,04,992.42
2015,02,07,01,05,992.42
2015,02,07,01,06,992.42
2015,02,07,01,07,992.38
2015,02,07,01,08,992.45
2015,02,07,01,09,992.48
2015,02,07,01,10,992.48
2015,02,07,01,11,992.45
2015,02,07,01,12,992.58
2015,02,07,01,13,992.55
2015,02,07,01,14,992.52
2015,02,07,01,15,992.45
2015,02,07,01,16,992.35
2015,02,07,01,17,992.25
2015,02,07,01,18,992.31
2015,02,07,01,19,992.38
2015,02,07,01,20,992.48
2015,02,07,01,21,992.55
2015,02,07,01,22,992.55
2015,02,07,01,23,992.52
2015,02,07,01,24,992.52
2015,02,07,01,25,992.55
2015,02,07,01,26,992.62
2015,02,07,01,27,992.55
2015,02,07,01,28,992.48
2015,02,07,01,29,992.45
2015,02,07,01,30,992.42
2015,02,07,01,31,992.45
2015,02,07,01,32,992.52
2015,02,07,01,33,992.62
2015,02,07,01,34,992.55
2015,02,07,01,35,992.55
2015,02,07,01,36,992.45
2015,02,07,01,37,992.45
2015,02,07,01,38,992.48
2015,02,07,01,39,992.55
2015,02,07,01,40,992.58
2015,02,07,01,41,992.58
2015,02,07,01,42,992.62
2015,02,07,01,43,992.58
2015,02,07,01,44,992.55
2015,02,07,01,45,992.52
2015,02,07,01,46,992.52
2015,02,07,01,47,992.55
2015,02,07,01,48,992.55
2015,02,07,01,49,992.58
2015,02,07,01,50,992.65
2015,02,07,01,51,992.69
2015,02,07,01,52,992.72
2015,02,07,01,53,992.69
2015,02,07,01,54,992.69
2015,02,07,01,55,992.62
2015,02,07,01,56,992.62
2015,02,07,01,57,992.58
2015,02,07,01,58,992.58
2015,02,07,01,59,992.58
2015,02,07,02,00,992.62
2015,02,07,02,01,992.65
2015,02,07,02,02,992.69
2015,02,07,02,03,992.72
2015,02,07,02,04,992.75
2015,02,07,02,05,992.72
2015,02,07,02,06,992.72
2015,02,07,02,07,992.75
2015,02,07,02,08,992.72
2015,02,07,02,09,992.75
2015,02,07,02,10,992.82
2015,02,07,02,11,992.75
2015,02,07,02,12,992.79
2015,02,07,02,13,992.75
2015,02,07,02,14,992.75
2015,02,07,02,15,992.72
2015,02,07,02,16,992.72
2015,02,07,02,17,992.65
2015,02,07,02,18,992.69
2015,02,07,02,19,992.69
2015,02,07,02,20,992.75
2015,02,07,02,21,992.79
2015,02,07,02,22,992.79
2015,02,07,02,23,992.82
2015,02,07,02,24,992.75
2015,02,07,02,25,992.69
2015,02,07,02,26,992.62
2015,02,07,02,27,992.69
2015,02,07,02,28,992.72
2015,02,07,02,29,992.62
2015,02,07,02,30,992.62
2015,02,07,02,31,992.62
2015,02,07,02,32,992.62
2015,02,07,02,33,992.58
2015,02,07,02,34,992.62
2015,02,07,02,35,992.62
2015,02,07,02,36,992.58
2015,02,07,02,37,992.58
2015,02,07,02,38,992.58
2015,02,07,02,39,992.55
2015,02,07,02,40,992.58
2015,02,07,02,41,992.58
2015,02,07,02,42,992.62
2015,02,07,02,43,992.62
2015,02,07,02,44,992.55
2015,02,07,02,45,992.58
2015,02,07,02,46,992.55
2015,02,07,02,47,992.55
2015,02,07,02,48,992.58
2015,02,07,02,49,992.55
2015,02,07,02,50,992.52
2015,02,07,02,51,992.52
2015,02,07,02,52,992.52
2015,02,07,02,53,992.55
2015,02,07,02,54,992.52
2015,02,07,02,55,992.52
2015,02,07,02,56,992.58
2015,02,07,02,57,992.58
2015,02,07,02,58,992.55
2015,02,07,02,59,992.55
2015,02,07,03,00,992.52
2015,02,07,03,01,992.55
2015,02,07,03,02,992.58
2015,02,07,03,03,992.62
2015,02,07,03,04,992.55
2015,02,07,03,05,992.62
2015,02,07,03,06,992.65
2015,02,07,03,07,992.65
2015,02,07,03,08,992.62
2015,02,07,03,09,992.62
2015,02,07,03,10,992.62
2015,02,07,03,11,992.69
2015,02,07,03,12,992.69
2015,02,07,03,13,992.65
2015,02,07,03,14,992.72
2015,02,07,03,15,992.72
2015,02,07,03,16,992.69
2015,02,07,03,17,992.62
2015,02,07,03,18,992.69
2015,02,07,03,19,992.69
2015,02,07,03,20,992.62
2015,02,07,03,21,992.65
2015,02,07,03,22,992.65
2015,02,07,03,23,992.69
2015,02,07,03,24,992.65
2015,02,07,03,25,992.65
2015,02,07,03,26,992.69
2015,02,07,03,27,992.65
2015,02,07,03,28,992.69
2015,02,07,03,29,992.72
2015,02,07,03,30,992.69
2015,02,07,03,31,992.69
2015,02,07,03,32,992.65
2015,02,07,03,33,992.69
2015,02,07,03,34,992.62
2015,02,07,03,35,992.65
2015,02,07,03,36,992.65
2015,02,07,03,37,992.65
2015,02,07,03,38,992.69
2015,02,07,03,39,992.69
2015,02,07,03,40,992.69
2015,02,07,03,41,992.65
2015,02,07,03,42,992.62
2015,02,07,03,43,992.72
2015,02,07,03,44,992.72
2015,02,07,03,45,992.69
2015,02,07,03,46,992.62
2015,02,07,03,47,992.62
2015,02,07,03,48,992.55
2015,02,07,03,49,992.55
2015,02,07,03,50,992.62
2015,02,07,03,51,992.62
2015,02,07,03,52,992.69
2015,02,07,03,53,992.65
2015,02,07,03,54,992.69
2015,02,07,03,55,992.72
2015,02,07,03,56,992.72
2015,02,07,03,57,992.72
2015,02,07,03,58,992.69
2015,02,07,03,59,992.69
2015,02,07,04,00,992.72
2015,02,07,04,01,992.69
2015,02,07,04,02,992.69
2015,02,07,04,03,992.62
2015,02,07,04,04,992.65
2015,02,07,04,05,992.62
2015,02,07,04,06,992.62
2015,02,07,04,07,992.62
2015,02,07,04,08,992.62
2015,02,07,04,09,992.58
2015,02,07,04,10,992.62
2015,02,07,04,11,992.58
2015,02,07,04,12,992.62
2015,02,07,04,13,992.65
2015,02,07,04,14,992.62
2015,02,07,04,15,992.62
2015,02,07,04,16,992.62
2015,02,07,04,17,992.65
2015,02,07,04,18,992.65
2015,02,07,04,19,992.69
2015,02,07,04,20,992.69
2015,02,07,04,21,992.72
2015,02,07,04,22,992.65
2015,02,07,04,23,992.65
2015,02,07,04,24,992.65
2015,02,07,04,25,992.69
2015,02,07,04,26,992.62
2015,02,07,04,27,992.69
2015,02,07,04,28,992.65
2015,02,07,04,29,992.62
2015,02,07,04,30,992.62
2015,02,07,04,31,992.62
2015,02,07,04,32,992.58
2015,02,07,04,33,992.65
2015,02,07,04,34,992.58
2015,02,07,04,35,992.65
2015,02,07,04,36,992.62
2015,02,07,04,37,992.62
2015,02,07,04,38,992.58
2015,02,07,04,39,992.55
2015,02,07,04,40,992.58
2015,02,07,04,41,992.52
2015,02,07,04,42,992.52
2015,02,07,04,43,992.52
2015,02,07,04,44,992.52
2015,02,07,04,45,992.45
2015,02,07,04,46,992.48
2015,02,07,04,47,992.48
2015,02,07,04,48,992.45
2015,02,07,04,49,992.52
2015,02,07,04,50,992.52
2015,02,07,04,51,992.48
2015,02,07,04,52,992.45
2015,02,07,04,53,992.38
2015,02,07,04,54,992.38
2015,02,07,04,55,992.45
2015,02,07,04,56,992.42
2015,02,07,04,57,992.38
2015,02,07,04,58,992.38
2015,02,07,04,59,992.42
2015,02,07,05,00,992.31
2015,02,07,05,01,992.42
2015,02,07,05,02,992.38
2015,02,07,05,03,992.35
2015,02,07,05,04,992.35
2015,02,07,05,05,992.38
2015,02,07,05,06,992.45
2015,02,07,05,07,992.52
2015,02,07,05,08,992.55
2015,02,07,05,09,992.58
2015,02,07,05,10,992.62
2015,02,07,05,11,992.65
2015,02,07,05,12,992.65
2015,02,07,05,13,992.62
2015,02,07,05,14,992.58
2015,02,07,05,15,992.62
2015,02,07,05,16,992.58
2015,02,07,05,17,992.58
2015,02,07,05,18,992.58
2015,02,07,05,19,992.58
2015,02,07,05,20,992.58
2015,02,07,05,21,992.62
2015,02,07,05,22,992.58
2015,02,07,05,23,992.58
2015,02,07,05,24,992.55
2015,02,07,05,25,992.52
2015,02,07,05,26,992.52
2015,02,07,05,27,992.52
2015,02,07,05,28,992.52
2015,02,07,05,29,992.52
2015,02,07,05,30,992.52
2015,02,07,05,31,992.48
2015,02,07,05,32,992.55
2015,02,07,05,33,992.52
2015,02,07,05,34,992.48
2015,02,07,05,35,992.48
2015,02,07,05,36,992.48
2015,02,07,05,37,992.52
2015,02,07,05,38,992.52
2015,02,07,05,39,992.55
2015,02,07,05,40,992.62
2015,02,07,05,41,992.62
2015,02,07,05,42,992.58
2015,02,07,05,43,992.58
2015,02,07,05,44,992.62
2015,02,07,05,45,992.58
2015,02,07,05,46,992.62
2015,02,07,05,47,992.62
2015,02,07,05,48,992.62
2015,02,07,05,49,992.65
2015,02,07,05,50,992.65
2015,02,07,05,51,992.65
2015,02,07,05,52,992.69
2015,02,07,05,53,992.65
2015,02,07,05,54,992.69
2015,02,07,05,55,992.69
2015,02,07,05,56,992.69
2015,02,07,05,57,992.72
2015,02,07,05,58,992.75
2015,02,07,05,59,992.75
2015,02,07,06,00,992.79
2015,02,07,06,01,992.79
2015,02,07,06,02,992.82
2015,02,07,06,03,992.79
2015,02,07,06,04,992.79
2015,02,07,06,05,992.82
2015,02,07,06,06,992.82
2015,02,07,06,07,992.82
2015,02,07,06,08,992.82
2015,02,07,06,09,992.89
2015,02,07,06,10,992.86
2015,02,07,06,11,992.89
2015,02,07,06,12,992.86
2015,02,07,06,13,992.86
2015,02,07,06,14,992.89
2015,02,07,06,15,992.89
2015,02,07,06,16,992.96
2015,02,07,06,17,992.96
2015,02,07,06,18,992.99
2015,02,07,06,19,992.96
2015,02,07,06,20,993.03
2015,02,07,06,21,992.99
2015,02,07,06,22,992.96
2015,02,07,06,23,992.99
2015,02,07,06,24,992.92
2015,02,07,06,25,992.99
2015,02,07,06,26,992.96
2015,02,07,06,27,992.96
2015,02,07,06,28,992.99
2015,02,07,06,29,993.03
2015,02,07,06,30,993.03
2015,02,07,06,31,993.03
2015,02,07,06,32,993.03
2015,02,07,06,33,993.09
2015,02,07,06,34,993.13
2015,02,07,06,35,993.13
2015,02,07,06,36,993.13
2015,02,07,06,37,993.13
2015,02,07,06,38,993.09
2015,02,07,06,39,993.09
2015,02,07,06,40,993.09
2015,02,07,06,41,993.13
2015,02,07,06,42,993.09
2015,02,07,06,43,993.13
2015,02,07,06,44,993.13
2015,02,07,06,45,993.19
2015,02,07,06,46,993.19
2015,02,07,06,47,993.23
2015,02,07,06,48,993.23
2015,02,07,06,49,993.16
2015,02,07,06,50,993.19
2015,02,07,06,51,993.13
2015,02,07,06,52,993.16
2015,02,07,06,53,993.13
2015,02,07,06,54,993.16
2015,02,07,06,55,993.19
2015,02,07,06,56,993.19
2015,02,07,06,57,993.30
2015,02,07,06,58,993.30
2015,02,07,06,59,993.36
2015,02,07,07,00,993.33
2015,02,07,07,01,993.33
2015,02,07,07,02,993.33
2015,02,07,07,03,993.36
2015,02,07,07,04,993.40
2015,02,07,07,05,993.36
2015,02,07,07,06,993.40
2015,02,07,07,07,993.40
2015,02,07,07,08,993.40
2015,02,07,07,09,993.43
2015,02,07,07,10,993.50
2015,02,07,07,11,993.50
2015,02,07,07,12,993.50
2015,02,07,07,13,993.53
2015,02,07,07,14,993.53
2015,02,07,07,15,993.53
2015,02,07,07,16,993.57
2015,02,07,07,17,993.53
2015,02,07,07,18,993.53
2015,02,07,07,19,993.60
2015,02,07,07,20,993.57
2015,02,07,07,21,993.57
2015,02,07,07,22,993.63
2015,02,07,07,23,993.63
2015,02,07,07,24,993.70
2015,02,07,07,25,993.70
2015,02,07,07,26,993.70
2015,02,07,07,27,993.77
2015,02,07,07,28,993.74
2015,02,07,07,29,993.77
2015,02,07,07,30,993.77
2015,02,07,07,31,993.80
2015,02,07,07,32,993.87
2015,02,07,07,33,993.84
2015,02,07,07,34,993.87
2015,02,07,07,35,993.87
2015,02,07,07,36,993.91
2015,02,07,07,37,993.94
2015,02,07,07,38,993.97
2015,02,07,07,39,993.97
2015,02,07,07,40,993.94
2015,02,07,07,41,993.97
2015,02,07,07,42,993.94
2015,02,07,07,43,993.94
2015,02,07,07,44,994.01
2015,02,07,07,45,994.01
2015,02,07,07,46,994.01
2015,02,07,07,47,994.04
2015,02,07,07,48,994.07
2015,02,07,07,49,994.11
2015,02,07,07,50,994.14
2015,02,07,07,51,994.14
2015,02,07,07,52,994.11
2015,02,07,07,53,994.21
2015,02,07,07,54,994.14
2015,02,07,07,55,994.14
2015,02,07,07,56,994.14
2015,02,07,07,57,994.24
2015,02,07,07,58,994.21
2015,02,07,07,59,994.24
2015,02,07,08,00,994.24
2015,02,07,08,01,994.28
2015,02,07,08,02,994.28
2015,02,07,08,03,994.31
2015,02,07,08,04,994.35
2015,02,07,08,05,994.35
2015,02,07,08,06,994.35
2015,02,07,08,07,994.35
2015,02,07,08,08,994.38
2015,02,07,08,09,994.38
2015,02,07,08,10,994.35
2015,02,07,08,11,994.41
2015,02,07,08,12,994.41
2015,02,07,08,13,994.38
2015,02,07,08,14,994.41
2015,02,07,08,15,994.45
2015,02,07,08,16,994.45
2015,02,07,08,17,994.52
2015,02,07,08,18,994.48
2015,02,07,08,19,994.52
2015,02,07,08,20,994.52
2015,02,07,08,21,994.48
2015,02,07,08,22,994.55
2015,02,07,08,23,994.58
2015,02,07,08,24,994.58
2015,02,07,08,25,994.58
2015,02,07,08,26,994.58
2015,02,07,08,27,994.58
2015,02,07,08,28,994.58
2015,02,07,08,29,994.62
2015,02,07,08,30,994.62
2015,02,07,08,31,994.65
2015,02,07,08,32,994.68
2015,02,07,08,33,994.68
2015,02,07,08,34,994.68
2015,02,07,08,35,994.72
2015,02,07,08,36,994.79
2015,02,07,08,37,994.75
2015,02,07,08,38,994.82
2015,02,07,08,39,994.85
2015,02,07,08,40,994.85
2015,02,07,08,41,994.89
2015,02,07,08,42,994.92
2015,02,07,08,43,994.92
2015,02,07,08,44,994.92
2015,02,07,08,45,994.92
2015,02,07,08,46,994.99
2015,02,07,08,47,994.99
2015,02,07,08,48,995.02
2015,02,07,08,49,995.02
2015,02,07,08,50,995.06
2015,02,07,08,51,995.06
2015,02,07,08,52,995.09
2015,02,07,08,53,995.06
2015,02,07,08,54,995.06
2015,02,07,08,55,995.09
2015,02,07,08,56,995.16
2015,02,07,08,57,995.12
2015,02,07,08,58,995.19
2015,02,07,08,59,995.16
2015,02,07,09,00,995.16
2015,02,07,09,01,995.16
2015,02,07,09,02,995.26
2015,02,07,09,03,995.26
2015,02,07,09,04,995.29
2015,02,07,09,05,995.29
2015,02,07,09,06,995.29
2015,02,07,09,07,995.29
2015,02,07,09,08,995.33
2015,02,07,09,09,995.36
2015,02,07,09,10,995.40
2015,02,07,09,11,995.50
2015,02,07,09,12,995.46
2015,02,07,09,13,995.50
2015,02,07,09,14,995.53
2015,02,07,09,15,995.56
2015,02,07,09,16,995.56
2015,02,07,09,17,995.60
2015,02,07,09,18,995.56
2015,02,07,09,19,995.56
2015,02,07,09,20,995.60
2015,02,07,09,21,995.67
2015,02,07,09,22,995.67
2015,02,07,09,23,995.70
2015,02,07,09,24,995.73
2015,02,07,09,25,995.77
2015,02,07,09,26,995.73
2015,02,07,09,27,995.80
2015,02,07,09,28,995.80
2015,02,07,09,29,995.84
2015,02,07,09,30,995.84
2015,02,07,09,31,995.87
2015,02,07,09,32,995.87
2015,02,07,09,33,995.90
2015,02,07,09,34,995.90
2015,02,07,09,35,995.94
2015,02,07,09,36,995.90
2015,02,07,09,37,995.94
2015,02,07,09,38,995.97
2015,02,07,09,39,995.97
2015,02,07,09,40,995.97
2015,02,07,09,41,995.97
2015,02,07,09,42,995.97
2015,02,07,09,43,995.97
2015,02,07,09,44,996.04
2015,02,07,09,45,996.01
2015,02,07,09,46,996.01
2015,02,07,09,47,996.04
2015,02,07,09,48,996.07
2015,02,07,09,49,996.07
2015,02,07,09,50,996.07
2015,02,07,09,51,996.07
2015,02,07,09,52,996.07
2015,02,07,09,53,996.01
2015,02,07,09,54,996.04
2015,02,07,09,55,996.04
2015,02,07,09,56,996.04
2015,02,07,09,57,996.04
2015,02,07,09,58,996.11
2015,02,07,09,59,996.14
2015,02,07,10,00,996.11
2015,02,07,10,01,996.17
2015,02,07,10,02,996.21
2015,02,07,10,03,996.28
2015,02,07,10,04,996.28
2015,02,07,10,05,996.31
2015,02,07,10,06,996.28
2015,02,07,10,07,996.28
2015,02,07,10,08,996.34
2015,02,07,10,09,996.38
2015,02,07,10,10,996.38
2015,02,07,10,11,996.34
2015,02,07,10,12,996.38
2015,02,07,10,13,996.41
2015,02,07,10,14,996.41
2015,02,07,10,15,996.41
2015,02,07,10,16,996.38
2015,02,07,10,17,996.41
2015,02,07,10,18,996.41
2015,02,07,10,19,996.45
2015,02,07,10,20,996.48
2015,02,07,10,21,996.45
2015,02,07,10,22,996.51
2015,02,07,10,23,996.51
2015,02,07,10,24,996.58
2015,02,07,10,25,996.55
2015,02,07,10,26,996.65
2015,02,07,10,27,996.58
2015,02,07,10,28,996.65
2015,02,07,10,29,996.65
2015,02,07,10,30,996.65
2015,02,07,10,31,996.65
2015,02,07,10,32,996.65
2015,02,07,10,33,996.61
2015,02,07,10,34,996.68
2015,02,07,10,35,996.65
2015,02,07,10,36,996.65
2015,02,07,10,37,996.68
2015,02,07,10,38,996.65
2015,02,07,10,39,996.68
2015,02,07,10,40,996.75
2015,02,07,10,41,996.78
2015,02,07,10,42,996.82
2015,02,07,10,43,996.89
2015,02,07,10,44,996.85
2015,02,07,10,45,996.92
2015,02,07,10,46,996.92
2015,02,07,10,47,996.92
2015,02,07,10,48,996.95
2015,02,07,10,49,997.02
2015,02,07,10,50,996.99
2015,02,07,10,51,997.02
2015,02,07,10,52,997.05
2015,02,07,10,53,997.05
2015,02,07,10,54,997.16
2015,02,07,10,55,997.19
2015,02,07,10,56,997.19
2015,02,07,10,57,997.26
2015,02,07,10,58,997.26
2015,02,07,10,59,997.26
2015,02,07,11,00,997.33
2015,02,07,11,01,997.36
2015,02,07,11,02,997.39
2015,02,07,11,03,997.43
2015,02,07,11,04,997.43
2015,02,07,11,05,997.43
2015,02,07,11,06,997.50
2015,02,07,11,07,997.50
2015,02,07,11,08,997.50
2015,02,07,11,09,997.50
2015,02,07,11,10,997.46
2015,02,07,11,11,997.53
2015,02,07,11,12,997.56
2015,02,07,11,13,997.60
2015,02,07,11,14,997.56
2015,02,07,11,15,997.60
2015,02,07,11,16,997.56
2015,02,07,11,17,997.63
2015,02,07,11,18,997.63
2015,02,07,11,19,997.63
2015,02,07,11,20,997.70
2015,02,07,11,21,997.73
2015,02,07,11,22,997.77
2015,02,07,11,23,997.83
2015,02,07,11,24,997.83
2015,02,07,11,25,997.83
2015,02,07,11,26,997.87
2015,02,07,11,27,997.94
2015,02,07,11,28,997.94
2015,02,07,11,29,997.97
2015,02,07,11,30,998.00
2015,02,07,11,31,997.97
2015,02,07,11,32,997.97
2015,02,07,11,33,998.00
2015,02,07,11,34,998.04
2015,02,07,11,35,998.07
2015,02,07,11,36,998.04
2015,02,07,11,37,998.00
2015,02,07,11,38,998.00
2015,02,07,11,39,997.97
2015,02,07,11,40,998.04
2015,02,07,11,41,998.00
2015,02,07,11,42,998.07
2015,02,07,11,43,998.14
2015,02,07,11,44,998.14
2015,02,07,11,45,998.14
2015,02,07,11,46,998.21
2015,02,07,11,47,998.21
2015,02,07,11,48,998.17
2015,02,07,11,49,998.24
2015,02,07,11,50,998.24
2015,02,07,11,51,998.27
2015,02,07,11,52,998.24
2015,02,07,11,53,998.27
2015,02,07,11,54,998.34
2015,02,07,11,55,998.34
2015,02,07,11,56,998.38
2015,02,07,11,57,998.38
2015,02,07,11,58,998.38
2015,02,07,11,59,998.41
2015,02,07,12,00,998.48
2015,02,07,12,01,998.48
2015,02,07,12,02,998.51
2015,02,07,12,03,998.61
2015,02,07,12,04,998.61
2015,02,07,12,05,998.61
2015,02,07,12,06,998.61
2015,02,07,12,07,998.58
2015,02,07,12,08,998.58
2015,02,07,12,09,998.58
2015,02,07,12,10,998.58
2015,02,07,12,11,998.58
2015,02,07,12,12,998.65
2015,02,07,12,13,998.61
2015,02,07,12,14,998.65
2015,02,07,12,15,998.71
2015,02,07,12,16,998.78
2015,02,07,12,17,998.78
2015,02,07,12,18,998.75
2015,02,07,12,19,998.82
2015,02,07,12,20,998.82
2015,02,07,12,21,998.85
2015,02,07,12,22,998.92
2015,02,07,12,23,998.92
2015,02,07,12,24,998.95
2015,02,07,12,25,998.99
2015,02,07,12,26,999.02
2015,02,07,12,27,999.05
2015,02,07,12,28,999.05
2015,02,07,12,29,999.09
2015,02,07,12,30,999.15
2015,02,07,12,31,999.15
2015,02,07,12,32,999.09
2015,02,07,12,33,999.09
2015,02,07,12,34,998.99
2015,02,07,12,35,998.95
2015,02,07,12,36,998.85
2015,02,07,12,37,998.88
2015,02,07,12,38,998.88
2015,02,07,12,39,998.92
2015,02,07,12,40,998.95
2015,02,07,12,41,999.05
2015,02,07,12,42,999.15
2015,02,07,12,43,999.12
2015,02,07,12,44,999.15
2015,02,07,12,45,999.12
2015,02,07,12,46,999.09
2015,02,07,12,47,999.05
2015,02,07,12,48,999.02
2015,02,07,12,49,999.05
2015,02,07,12,50,999.02
2015,02,07,12,51,999.09
2015,02,07,12,52,999.12
2015,02,07,12,53,999.09
2015,02,07,12,54,999.12
2015,02,07,12,55,999.12
2015,02,07,12,56,999.15
2015,02,07,12,57,999.19
2015,02,07,12,58,999.22
2015,02,07,12,59,999.19
2015,02,07,13,00,999.22
2015,02,07,13,01,999.26
2015,02,07,13,02,999.26
2015,02,07,13,03,999.26
2015,02,07,13,04,999.26
2015,02,07,13,05,999.26
2015,02,07,13,06,999.26
2015,02,07,13,07,999.26
2015,02,07,13,08,999.26
2015,02,07,13,09,999.26
2015,02,07,13,10,999.26
2015,02,07,13,11,999.22
2015,02,07,13,12,999.26
2015,02,07,13,13,999.29
2015,02,07,13,14,999.32
2015,02,07,13,15,999.32
2015,02,07,13,16,999.39
2015,02,07,13,17,999.39
2015,02,07,13,18,999.39
2015,02,07,13,19,999.43
2015,02,07,13,20,999.46
2015,02,07,13,21,999.53
2015,02,07,13,22,999.46
2015,02,07,13,23,999.53
2015,02,07,13,24,999.56
2015,02,07,13,25,999.56
2015,02,07,13,26,999.63
2015,02,07,13,27,999.59
2015,02,07,13,28,999.72
2015,02,07,13,29,999.73
2015,02,07,13,30,999.76
2015,02,07,13,31,999.80
2015,02,07,13,32,999.80
2015,02,07,13,33,999.87
2015,02,07,13,34,999.90
2015,02,07,13,35,999.93
2015,02,07,13,36,999.97
2015,02,07,13,37,1000.00
2015,02,07,13,38,1000.03
2015,02,07,13,39,999.97
2015,02,07,13,40,1000.00
2015,02,07,13,41,999.93
2015,02,07,13,42,999.97
2015,02,07,13,43,999.97
2015,02,07,13,44,999.97
2015,02,07,13,45,1000.00
2015,02,07,13,46,1000.03
2015,02,07,13,47,1000.07
2015,02,07,13,48,1000.07
2015,02,07,13,49,1000.03
2015,02,07,13,50,1000.00
2015,02,07,13,51,1000.07
2015,02,07,13,52,1000.10
2015,02,07,13,53,1000.07
2015,02,07,13,54,1000.07
2015,02,07,13,55,1000.10
2015,02,07,13,56,1000.07
2015,02,07,13,57,1000.10
2015,02,07,13,58,1000.17
2015,02,07,13,59,1000.14
2015,02,07,14,00,1000.20
2015,02,07,14,01,1000.17
2015,02,07,14,02,1000.20
2015,02,07,14,03,1000.27
2015,02,07,14,04,1000.27
2015,02,07,14,05,1000.31
2015,02,07,14,06,1000.34
2015,02,07,14,07,1000.34
2015,02,07,14,08,1000.37
2015,02,07,14,09,1000.37
2015,02,07,14,10,1000.41
2015,02,07,14,11,1000.37
2015,02,07,14,12,1000.44
2015,02,07,14,13,1000.44
2015,02,07,14,14,1000.44
2015,02,07,14,15,1000.44
2015,02,07,14,16,1000.48
2015,02,07,14,17,1000.44
2015,02,07,14,18,1000.48
2015,02,07,14,19,1000.44
2015,02,07,14,20,1000.48
2015,02,07,14,21,1000.48
2015,02,07,14,22,1000.44
2015,02,07,14,23,1000.44
2015,02,07,14,24,1000.44
2015,02,07,14,25,1000.44
2015,02,07,14,26,1000.34
2015,02,07,14,27,1000.41
2015,02,07,14,28,1000.44
2015,02,07,14,29,1000.48
2015,02,07,14,30,1000.48
2015,02,07,14,31,1000.54
2015,02,07,14,32,1000.54
2015,02,07,14,33,1000.61
2015,02,07,14,34,1000.61
2015,02,07,14,35,1000.61
2015,02,07,14,36,1000.64
2015,02,07,14,37,1000.68
2015,02,07,14,38,1000.68
2015,02,07,14,39,1000.68
2015,02,07,14,40,1000.71
2015,02,07,14,41,1000.71
2015,02,07,14,42,1000.78
2015,02,07,14,43,1000.78
2015,02,07,14,44,1000.81
2015,02,07,14,45,1000.85
2015,02,07,14,46,1000.92
2015,02,07,14,47,1000.95
2015,02,07,14,48,1000.95
2015,02,07,14,49,1001.02
2015,02,07,14,50,1001.02
2015,02,07,14,51,1001.08
2015,02,07,14,52,1001.12
2015,02,07,14,53,1001.19
2015,02,07,14,54,1001.19
2015,02,07,14,55,1001.22
2015,02,07,14,56,1001.22
2015,02,07,14,57,1001.25
2015,02,07,14,58,1001.22
2015,02,07,14,59,1001.25
2015,02,07,15,00,1001.29
2015,02,07,15,01,1001.36
2015,02,07,15,02,1001.39
2015,02,07,15,03,1001.39
2015,02,07,15,04,1001.46
2015,02,07,15,05,1001.46
2015,02,07,15,06,1001.46
2015,02,07,15,07,1001.49
2015,02,07,15,08,1001.52
2015,02,07,15,09,1001.59
2015,02,07,15,10,1001.59
2015,02,07,15,11,1001.63
2015,02,07,15,12,1001.63
2015,02,07,15,13,1001.66
2015,02,07,15,14,1001.66
2015,02,07,15,15,1001.66
2015,02,07,15,16,1001.63
2015,02,07,15,17,1001.63
2015,02,07,15,18,1001.63
2015,02,07,15,19,1001.59
2015,02,07,15,20,1001.59
2015,02,07,15,21,1001.56
2015,02,07,15,22,1001.56
2015,02,07,15,23,1001.56
2015,02,07,15,24,1001.56
2015,02,07,15,25,1001.59
2015,02,07,15,26,1001.59
2015,02,07,15,27,1001.63
2015,02,07,15,28,1001.63
2015,02,07,15,29,1001.66
2015,02,07,15,30,1001.73
2015,02,07,15,31,1001.76
2015,02,07,15,32,1001.73
2015,02,07,15,33,1001.73
2015,02,07,15,34,1001.73
2015,02,07,15,35,1001.69
2015,02,07,15,36,1001.69
2015,02,07,15,37,1001.69
2015,02,07,15,38,1001.69
2015,02,07,15,39,1001.69
2015,02,07,15,40,1001.73
2015,02,07,15,41,1001.69
2015,02,07,15,42,1001.76
2015,02,07,15,43,1001.66
2015,02,07,15,44,1001.69
2015,02,07,15,45,1001.69
2015,02,07,15,46,1001.69
2015,02,07,15,47,1001.73
2015,02,07,15,48,1001.73
2015,02,07,15,49,1001.73
2015,02,07,15,50,1001.80
2015,02,07,15,51,1001.80
2015,02,07,15,52,1001.80
2015,02,07,15,53,1001.83
2015,02,07,15,54,1001.83
2015,02,07,15,55,1001.86
2015,02,07,15,56,1001.90
2015,02,07,15,57,1001.86
2015,02,07,15,58,1001.86
2015,02,07,15,59,1001.86
2015,02,07,16,00,1001.90
2015,02,07,16,01,1001.93
2015,02,07,16,02,1001.97
2015,02,07,16,03,1001.97
2015,02,07,16,04,1002.00
2015,02,07,16,05,1002.00
2015,02,07,16,06,1002.03
2015,02,07,16,07,1002.03
2015,02,07,16,08,1002.03
2015,02,07,16,09,1002.07
2015,02,07,16,10,1002.03
2015,02,07,16,11,1002.03
2015,02,07,16,12,1002.10
2015,02,07,16,13,1002.10
2015,02,07,16,14,1002.07
2015,02,07,16,15,1002.10
2015,02,07,16,16,1002.10
2015,02,07,16,17,1002.13
2015,02,07,16,18,1002.13
2015,02,07,16,19,1002.10
2015,02,07,16,20,1002.13
2015,02,07,16,21,1002.17
2015,02,07,16,22,1002.20
2015,02,07,16,23,1002.27
2015,02,07,16,24,1002.24
2015,02,07,16,25,1002.30
2015,02,07,16,26,1002.30
2015,02,07,16,27,1002.30
2015,02,07,16,28,1002.30
2015,02,07,16,29,1002.27